Flag for Greenland Weather past 2 weeks in Danmarkshavn, Greenland

Now
N/A

Passing clouds.


Feels Like: N/A
Forecast: N/A
Wind: 2 mph from Southwest

Location: Danmarkshavn

Current Time: Jan 31, 2015 at 9:33:31 PM

Latest Report: Jan 31, 2015 at 8:00 PM


Visibility: 31 mi

Pressure: N/A

Humidity: N/A

Dew point: N/A

Location of DanmarkshavnLocation

Historic Weather in Danmarkshavn — Graph

°F

Danmarkshavn temperature yesterday

Maximum temperature yesterday: -2 °F (at 10:00 PM)
Minimum temperature yesterday: -13 °F (at 9:00 AM)
Average temperature yesterday: -7 °F

Past Weeks' High & Low Weather Summary

 TemperatureHumidityPressure
High29 °F (Jan 26, 6:00 PM)97% (Jan 26, 2:00 PM)30.17 "Hg (Jan 26, 2:00 PM)
Low-23 °F (Jan 17, 10:00 PM)52% (Jan 20, 5:00 AM)29.18 "Hg (Jan 26, 10:00 AM)
Average1 °F79%29.72 "Hg
* Reported Jan 16 8:00 PM — Jan 31 8:00 PM, Danmarkshavn, Weather by CustomWeather, © 2014

Note: Actual official high and low records may vary slightly from our data, if they occured in-between our weather recording intervals... More about our weather records

Advertising

Danmarkshavn weather history for previous 24 hours

 ConditionsComfort  
Time TempWeatherWind HumidityBarometerVisibility
8:00 PM
Jan 31
N/APassing clouds.2 mphN/AN/A31 mi
7:00 PMN/AOvercast.2 mphN/AN/A31 mi
6:00 PMN/APartly sunny.1 mphN/AN/A31 mi
5:00 PMN/AOvercast.6 mphN/AN/A17 mi
4:00 PMN/AOvercast.14 mphN/AN/A31 mi
3:00 PMN/APartly sunny.12 mphN/AN/A31 mi
2:00 PM-11 °FPartly sunny.9 mph68%30.00 "Hg31 mi
1:00 PM-10 °FScattered clouds.14 mph63%30.00 "Hg31 mi
12:00 PM-9 °FScattered clouds.9 mph57%30.00 "Hg31 mi
11:00 AMN/AOvercast.3 mphN/A30.01 "Hg31 mi
10:00 AM-7 °FScattered clouds.7 mph57%30.00 "Hg25 mi
9:00 AM-8 °FPassing clouds.9 mph60%29.99 "Hg31 mi
8:00 AM-5 °FPartly sunny.9 mph60%29.98 "Hg31 mi
7:00 AM-4 °FOvercast.10 mph60%29.98 "Hg31 mi
6:00 AM-4 °FOvercast.6 mph65%29.98 "HgN/A
5:00 AM-3 °FOvercast.13 mph66%29.98 "HgN/A
4:00 AM-3 °FOvercast.17 mph74%29.97 "HgN/A
3:00 AM-3 °FOvercast.22 mph76%29.94 "HgN/A
2:00 AM-3 °FSnow flurries. Overcast.22 mph79%29.95 "Hg1 mi
1:00 AM-2 °FSnow flurries. Overcast.20 mph78%29.96 "Hg1 mi
12:00 AM-3 °FSnow flurries. Overcast.16 mph81%29.97 "Hg2 mi
11:00 PM
Jan 30
-3 °FLight snow. Overcast.20 mph83%29.96 "Hg1 mi
10:00 PM-2 °FSnow flurries. Overcast.21 mph82%29.96 "Hg1 mi
9:00 PM-2 °FSnow. Overcast.25 mph82%29.97 "Hg0 mi
Weather by CustomWeather, © 2014

See weather overviewHow to use our weather pages